Location: Härggis
(46.9540°N, 8.4897°E)
Time: 22:11:55
(UTC+00:00)

Cosmos 2058 Rocket - Pass Details

Date: 27 May 2022
Orbit: 609 x 639 km, 82.5° (Epoch: 03 July)

Event Time Altitude Azimuth Distance (km) Brightness Sun altitude
Rises 02:22:58 0° 354° (N) 2,905 7.2 -10.7°
Reaches altitude 10° 02:25:15 10° 359° (N) 1,990 6.4 -10.4°
Maximum altitude 02:29:35 56° 77° (ENE) 730 3.8 -9.9°
Drops below altitude 10° 02:33:51 10° 157° (SSE) 1,961 5.4 -9.4°
Sets 02:36:05 0° 162° (SSE) 2,859 6.2 -9.1°
